Time,TemperatureF,DewpointF,PressureIn,WindDirection,WindDirectionDegrees,WindSpeedMPH,WindSpeedGustMPH,Humidity,HourlyPrecipIn,Conditions,Clouds,dailyrainin,SolarRadiationWatts/m^2,SoftwareType,DateUTC
2013-01-29 00:01:00,27.0,25.0,-100.00,ESE,113,0.0,0.0,93,0.00,,,0.00,0.000000,,2013-01-29 07:01:00,
2013-01-29 00:11:00,27.0,25.0,-100.00,ESE,113,0.0,0.0,93,0.00,,,0.00,0.000000,,2013-01-29 07:11:00,
2013-01-29 00:21:00,27.0,25.0,-100.00,ESE,113,0.0,0.0,93,0.00,,,0.00,0.000000,,2013-01-29 07:21:00,
2013-01-29 00:31:00,27.0,25.0,-100.00,ESE,113,0.0,0.0,93,0.00,,,0.00,0.000000,,2013-01-29 07:31:00,
2013-01-29 00:52:00,26.0,24.0,-100.00,SSW,208,0.0,0.0,93,0.00,,,0.00,0.000000,,2013-01-29 07:52:00,
2013-01-29 01:02:00,26.0,24.0,-100.00,SSW,208,0.0,0.0,93,0.00,,,0.00,0.000000,,2013-01-29 08:02:00,
2013-01-29 01:11:00,26.0,24.0,-100.00,SSW,208,0.0,0.0,93,0.00,,,0.00,0.000000,,2013-01-29 08:11:00,
2013-01-29 01:21:00,26.0,24.0,-100.00,SSW,208,0.0,0.0,93,0.00,,,0.00,0.000000,,2013-01-29 08:21:00,
2013-01-29 01:31:00,26.0,24.0,-100.00,SSW,208,0.0,0.0,93,0.00,,,0.00,0.000000,,2013-01-29 08:31:00,
2013-01-29 01:52:00,26.0,24.0,-100.00,South,173,0.0,0.0,93,0.00,,,0.00,0.000000,,2013-01-29 08:52:00,
2013-01-29 02:01:00,26.0,24.0,-100.00,South,173,0.0,0.0,93,0.00,,,0.00,0.000000,,2013-01-29 09:01:00,
2013-01-29 02:11:00,26.0,24.0,-100.00,South,173,0.0,0.0,93,0.00,,,0.00,0.000000,,2013-01-29 09:11:00,
2013-01-29 02:21:00,26.0,24.0,-100.00,South,173,0.0,0.0,93,0.00,,,0.00,0.000000,,2013-01-29 09:21:00,
2013-01-29 02:31:00,26.0,24.0,-100.00,South,173,0.0,0.0,93,0.00,,,0.00,0.000000,,2013-01-29 09:31:00,
2013-01-29 02:52:00,24.0,21.0,-100.00,South,188,0.0,0.0,89,0.00,,,0.00,0.000000,,2013-01-29 09:52:00,
2013-01-29 03:01:00,24.0,21.0,-100.00,South,188,0.0,0.0,89,0.00,,,0.00,0.000000,,2013-01-29 10:01:00,
2013-01-29 03:11:00,24.0,21.0,-100.00,South,188,0.0,0.0,89,0.00,,,0.00,0.000000,,2013-01-29 10:11:00,
2013-01-29 03:21:00,24.0,21.0,-100.00,South,188,0.0,0.0,89,0.00,,,0.00,0.000000,,2013-01-29 10:21:00,
2013-01-29 03:32:00,24.0,21.0,-100.00,South,188,0.0,0.0,89,0.00,,,0.00,0.000000,,2013-01-29 10:32:00,
2013-01-29 03:52:00,23.0,21.0,-100.00,South,170,0.0,0.0,91,0.00,,,0.00,0.000000,,2013-01-29 10:52:00,
2013-01-29 04:02:00,23.0,21.0,-100.00,South,170,0.0,0.0,91,0.00,,,0.00,0.000000,,2013-01-29 11:02:00,
2013-01-29 04:11:00,23.0,21.0,-100.00,South,170,0.0,0.0,91,0.00,,,0.00,0.000000,,2013-01-29 11:11:00,
2013-01-29 04:21:00,23.0,21.0,-100.00,South,170,0.0,0.0,91,0.00,,,0.00,0.000000,,2013-01-29 11:21:00,
2013-01-29 04:32:00,23.0,21.0,-100.00,South,170,0.0,0.0,91,0.00,,,0.00,0.000000,,2013-01-29 11:32:00,
2013-01-29 04:53:00,20.0,17.0,-100.00,NNE,26,0.0,0.0,88,0.00,,,0.00,0.000000,,2013-01-29 11:53:00,
2013-01-29 05:02:00,20.0,17.0,-100.00,NNE,26,0.0,0.0,88,0.00,,,0.00,0.000000,,2013-01-29 12:02:00,
2013-01-29 05:12:00,20.0,17.0,-100.00,NNE,26,0.0,0.0,88,0.00,,,0.00,0.000000,,2013-01-29 12:12:00,
2013-01-29 05:22:00,20.0,17.0,-100.00,NNE,26,0.0,0.0,88,0.00,,,0.00,0.000000,,2013-01-29 12:22:00,
2013-01-29 05:32:00,20.0,17.0,-100.00,NNE,26,0.0,0.0,88,0.00,,,0.00,0.000000,,2013-01-29 12:32:00,
2013-01-29 05:53:00,22.0,20.0,-100.00,East,85,0.0,0.0,90,0.00,,,0.00,0.000000,,2013-01-29 12:53:00,
2013-01-29 06:02:00,22.0,20.0,-100.00,East,85,0.0,0.0,90,0.00,,,0.00,0.000000,,2013-01-29 13:02:00,
2013-01-29 06:12:00,22.0,20.0,-100.00,East,85,0.0,0.0,90,0.00,,,0.00,0.000000,,2013-01-29 13:12:00,
2013-01-29 06:22:00,22.0,20.0,-100.00,East,85,0.0,0.0,90,0.00,,,0.00,0.000000,,2013-01-29 13:22:00,
2013-01-29 06:32:00,22.0,20.0,-100.00,East,85,0.0,0.0,90,0.00,,,0.00,0.000000,,2013-01-29 13:32:00,
2013-01-29 06:52:00,22.0,20.0,-100.00,West,259,0.0,0.0,91,0.00,,,0.00,0.000000,,2013-01-29 13:52:00,
2013-01-29 07:02:00,22.0,20.0,-100.00,West,259,0.0,0.0,91,0.00,,,0.00,0.000000,,2013-01-29 14:02:00,
2013-01-29 07:12:00,22.0,20.0,-100.00,West,259,0.0,0.0,91,0.00,,,0.00,0.000000,,2013-01-29 14:12:00,
2013-01-29 07:22:00,22.0,20.0,-100.00,West,259,0.0,0.0,91,0.00,,,0.00,0.000000,,2013-01-29 14:22:00,
2013-01-29 07:33:00,22.0,20.0,-100.00,West,259,0.0,0.0,91,0.00,,,0.00,0.000000,,2013-01-29 14:33:00,
2013-01-29 07:53:00,23.0,21.0,-100.00,SW,221,0.0,0.0,93,0.00,,,0.00,1.000000,,2013-01-29 14:53:00,
2013-01-29 08:02:00,23.0,21.0,-100.00,SW,221,0.0,0.0,93,0.00,,,0.00,1.000000,,2013-01-29 15:02:00,
2013-01-29 08:12:00,23.0,21.0,-100.00,SW,221,0.0,0.0,93,0.00,,,0.00,1.000000,,2013-01-29 15:12:00,
2013-01-29 08:22:00,23.0,21.0,-100.00,SW,221,0.0,0.0,93,0.00,,,0.00,1.000000,,2013-01-29 15:22:00,
2013-01-29 08:33:00,23.0,21.0,-100.00,SW,221,0.0,0.0,93,0.00,,,0.00,1.000000,,2013-01-29 15:33:00,
2013-01-29 08:53:00,24.0,21.0,-100.00,SW,216,0.0,0.0,87,0.00,,,0.00,11.000000,,2013-01-29 15:53:00,
2013-01-29 09:02:00,24.0,21.0,-100.00,SW,216,0.0,0.0,87,0.00,,,0.00,11.000000,,2013-01-29 16:02:00,
2013-01-29 09:12:00,24.0,21.0,-100.00,SW,216,0.0,0.0,87,0.00,,,0.00,11.000000,,2013-01-29 16:12:00,
2013-01-29 09:22:00,24.0,21.0,-100.00,SW,216,0.0,0.0,87,0.00,,,0.00,11.000000,,2013-01-29 16:22:00,
2013-01-29 09:32:00,24.0,21.0,-100.00,SW,216,0.0,0.0,87,0.00,,,0.00,11.000000,,2013-01-29 16:32:00,
2013-01-29 09:53:00,28.0,22.0,-100.00,SW,219,0.0,0.0,77,0.00,,,0.00,32.000000,,2013-01-29 16:53:00,
2013-01-29 10:03:00,28.0,22.0,-100.00,SW,219,0.0,0.0,77,0.00,,,0.00,32.000000,,2013-01-29 17:03:00,
2013-01-29 10:12:00,28.0,22.0,-100.00,SW,219,0.0,0.0,77,0.00,,,0.00,32.000000,,2013-01-29 17:12:00,
2013-01-29 10:22:00,28.0,22.0,-100.00,SW,219,0.0,0.0,77,0.00,,,0.00,32.000000,,2013-01-29 17:22:00,
2013-01-29 10:32:00,28.0,22.0,-100.00,SW,219,0.0,0.0,77,0.00,,,0.00,32.000000,,2013-01-29 17:32:00,
2013-01-29 10:52:00,29.0,21.0,-100.00,SW,233,0.0,0.0,73,0.00,,,0.00,58.000000,,2013-01-29 17:52:00,
2013-01-29 11:04:00,29.0,21.0,-100.00,SW,233,0.0,0.0,73,0.00,,,0.00,58.000000,,2013-01-29 18:04:00,
2013-01-29 11:12:00,29.0,21.0,-100.00,SW,233,0.0,0.0,73,0.00,,,0.00,58.000000,,2013-01-29 18:12:00,
2013-01-29 11:22:00,29.0,21.0,-100.00,SW,233,0.0,0.0,73,0.00,,,0.00,58.000000,,2013-01-29 18:22:00,
2013-01-29 11:33:00,29.0,21.0,-100.00,SW,233,0.0,0.0,73,0.00,,,0.00,58.000000,,2013-01-29 18:33:00,
2013-01-29 11:52:00,24.0,17.0,-100.00,SW,226,0.0,0.0,75,0.00,,,0.00,55.000000,,2013-01-29 18:52:00,
2013-01-29 12:02:00,24.0,17.0,-100.00,SW,226,0.0,0.0,75,0.00,,,0.00,55.000000,,2013-01-29 19:02:00,
2013-01-29 12:12:00,24.0,17.0,-100.00,SW,226,0.0,0.0,75,0.00,,,0.00,55.000000,,2013-01-29 19:12:00,
2013-01-29 12:22:00,24.0,17.0,-100.00,SW,226,0.0,0.0,75,0.00,,,0.00,55.000000,,2013-01-29 19:22:00,
2013-01-29 12:32:00,24.0,17.0,-100.00,SW,226,0.0,0.0,75,0.00,,,0.00,55.000000,,2013-01-29 19:32:00,
2013-01-29 12:52:00,25.0,14.0,-100.00,WSW,244,0.0,0.0,62,0.00,,,0.00,74.000000,,2013-01-29 19:52:00,
2013-01-29 13:02:00,25.0,14.0,-100.00,WSW,244,0.0,0.0,62,0.00,,,0.00,74.000000,,2013-01-29 20:02:00,
2013-01-29 13:12:00,25.0,14.0,-100.00,WSW,244,0.0,0.0,62,0.00,,,0.00,74.000000,,2013-01-29 20:12:00,
2013-01-29 13:22:00,25.0,14.0,-100.00,WSW,244,0.0,0.0,62,0.00,,,0.00,74.000000,,2013-01-29 20:22:00,
2013-01-29 13:33:00,25.0,14.0,-100.00,WSW,244,0.0,0.0,62,0.00,,,0.00,74.000000,,2013-01-29 20:33:00,
2013-01-29 13:53:00,22.0,15.0,-100.00,WSW,243,7.0,17.0,74,0.00,,,0.00,52.000000,,2013-01-29 20:53:00,
2013-01-29 14:03:00,22.0,15.0,-100.00,WSW,243,7.0,17.0,74,0.00,,,0.00,52.000000,,2013-01-29 21:03:00,
2013-01-29 14:12:00,22.0,15.0,-100.00,WSW,243,7.0,17.0,74,0.00,,,0.00,52.000000,,2013-01-29 21:12:00,
2013-01-29 14:22:00,22.0,15.0,-100.00,WSW,243,7.0,17.0,74,0.00,,,0.00,52.000000,,2013-01-29 21:22:00,
2013-01-29 14:33:00,22.0,15.0,-100.00,WSW,243,7.0,17.0,74,0.00,,,0.00,52.000000,,2013-01-29 21:33:00,
2013-01-29 14:53:00,19.0,16.0,-100.00,SW,225,7.0,18.0,88,0.00,,,0.00,20.000000,,2013-01-29 21:53:00,
2013-01-29 15:03:00,19.0,16.0,-100.00,SW,225,7.0,18.0,88,0.00,,,0.00,20.000000,,2013-01-29 22:03:00,
2013-01-29 15:12:00,19.0,16.0,-100.00,SW,225,7.0,18.0,88,0.00,,,0.00,20.000000,,2013-01-29 22:12:00,
2013-01-29 15:22:00,19.0,16.0,-100.00,SW,225,7.0,18.0,88,0.00,,,0.00,20.000000,,2013-01-29 22:22:00,
2013-01-29 15:33:00,19.0,16.0,-100.00,SW,225,7.0,18.0,88,0.00,,,0.00,20.000000,,2013-01-29 22:33:00,
2013-01-29 15:53:00,20.0,17.0,-100.00,WSW,255,3.0,11.0,89,0.00,,,0.00,12.000000,,2013-01-29 22:53:00,
2013-01-29 16:02:00,20.0,17.0,-100.00,WSW,255,3.0,11.0,89,0.00,,,0.00,12.000000,,2013-01-29 23:02:00,
2013-01-29 16:12:00,20.0,17.0,-100.00,WSW,255,3.0,11.0,89,0.00,,,0.00,12.000000,,2013-01-29 23:12:00,
2013-01-29 16:22:00,20.0,17.0,-100.00,WSW,255,3.0,11.0,89,0.00,,,0.00,12.000000,,2013-01-29 23:22:00,
2013-01-29 16:32:00,20.0,17.0,-100.00,WSW,255,3.0,11.0,89,0.00,,,0.00,12.000000,,2013-01-29 23:32:00,
2013-01-29 16:53:00,19.0,16.0,-100.00,SSW,210,6.0,9.0,89,0.00,,,0.00,8.000000,,2013-01-29 23:53:00,
2013-01-29 17:03:00,19.0,16.0,-100.00,SSW,210,6.0,9.0,89,0.00,,,0.00,8.000000,,2013-01-30 00:03:00,
2013-01-29 17:12:00,19.0,16.0,-100.00,SSW,210,6.0,9.0,89,0.00,,,0.00,8.000000,,2013-01-30 00:12:00,
2013-01-29 17:22:00,19.0,16.0,-100.00,SSW,210,6.0,9.0,89,0.00,,,0.00,8.000000,,2013-01-30 00:22:00,
2013-01-29 17:32:00,19.0,16.0,-100.00,SSW,210,6.0,9.0,89,0.00,,,0.00,8.000000,,2013-01-30 00:32:00,
2013-01-29 17:53:00,19.0,17.0,-100.00,South,190,3.0,11.0,90,0.00,,,0.00,2.000000,,2013-01-30 00:53:00,
2013-01-29 18:02:00,19.0,17.0,-100.00,South,190,3.0,11.0,90,0.00,,,0.00,2.000000,,2013-01-30 01:02:00,
2013-01-29 18:12:00,19.0,17.0,-100.00,South,190,3.0,11.0,90,0.00,,,0.00,2.000000,,2013-01-30 01:12:00,
2013-01-29 18:22:00,19.0,17.0,-100.00,South,190,3.0,11.0,90,0.00,,,0.00,2.000000,,2013-01-30 01:22:00,
2013-01-29 18:32:00,19.0,17.0,-100.00,South,190,3.0,11.0,90,0.00,,,0.00,2.000000,,2013-01-30 01:32:00,
2013-01-29 18:52:00,18.0,15.0,-100.00,South,191,4.0,9.0,88,0.00,,,0.00,0.000000,,2013-01-30 01:52:00,
2013-01-29 19:02:00,18.0,15.0,-100.00,South,191,4.0,9.0,88,0.00,,,0.00,0.000000,,2013-01-30 02:02:00,
2013-01-29 19:12:00,18.0,15.0,-100.00,South,191,4.0,9.0,88,0.00,,,0.00,0.000000,,2013-01-30 02:12:00,
2013-01-29 19:22:00,18.0,15.0,-100.00,South,191,4.0,9.0,88,0.00,,,0.00,0.000000,,2013-01-30 02:22:00,
2013-01-29 19:33:00,18.0,15.0,-100.00,South,191,4.0,9.0,88,0.00,,,0.00,0.000000,,2013-01-30 02:33:00,
2013-01-29 19:53:00,17.0,13.0,-100.00,West,278,3.0,9.0,85,0.00,,,0.00,0.000000,,2013-01-30 02:53:00,
2013-01-29 20:03:00,17.0,13.0,-100.00,West,278,3.0,9.0,85,0.00,,,0.00,0.000000,,2013-01-30 03:03:00,
2013-01-29 20:12:00,17.0,13.0,-100.00,West,278,3.0,9.0,85,0.00,,,0.00,0.000000,,2013-01-30 03:12:00,
2013-01-29 20:22:00,17.0,13.0,-100.00,West,278,3.0,9.0,85,0.00,,,0.00,0.000000,,2013-01-30 03:22:00,
2013-01-29 20:32:00,17.0,13.0,-100.00,West,278,3.0,9.0,85,0.00,,,0.00,0.000000,,2013-01-30 03:32:00,
2013-01-29 20:52:00,16.0,11.0,-100.00,SW,225,3.0,9.0,80,0.00,,,0.00,0.000000,,2013-01-30 03:52:00,
2013-01-29 21:02:00,16.0,11.0,-100.00,SW,225,3.0,9.0,80,0.00,,,0.00,0.000000,,2013-01-30 04:02:00,
2013-01-29 21:12:00,16.0,11.0,-100.00,SW,225,3.0,9.0,80,0.00,,,0.00,0.000000,,2013-01-30 04:12:00,
2013-01-29 21:22:00,16.0,11.0,-100.00,SW,225,3.0,9.0,80,0.00,,,0.00,0.000000,,2013-01-30 04:22:00,
2013-01-29 21:32:00,16.0,11.0,-100.00,SW,225,3.0,9.0,80,0.00,,,0.00,0.000000,,2013-01-30 04:32:00,
2013-01-29 21:52:00,12.0,7.0,-100.00,ESE,112,4.0,6.0,80,0.00,,,0.00,0.000000,,2013-01-30 04:52:00,
2013-01-29 22:03:00,12.0,7.0,-100.00,ESE,112,4.0,6.0,80,0.00,,,0.00,0.000000,,2013-01-30 05:03:00,
2013-01-29 22:12:00,12.0,7.0,-100.00,ESE,112,4.0,6.0,80,0.00,,,0.00,0.000000,,2013-01-30 05:12:00,
2013-01-29 22:22:00,12.0,7.0,-100.00,ESE,112,4.0,6.0,80,0.00,,,0.00,0.000000,,2013-01-30 05:22:00,
2013-01-29 22:32:00,12.0,7.0,-100.00,ESE,112,4.0,6.0,80,0.00,,,0.00,0.000000,,2013-01-30 05:32:00,
2013-01-29 22:52:00,13.0,9.0,-100.00,SE,135,4.0,6.0,83,0.00,,,0.00,0.000000,,2013-01-30 05:52:00,
2013-01-29 23:02:00,13.0,9.0,-100.00,SE,135,4.0,6.0,83,0.00,,,0.00,0.000000,,2013-01-30 06:02:00,
2013-01-29 23:11:00,13.0,9.0,-100.00,SE,135,4.0,6.0,83,0.00,,,0.00,0.000000,,2013-01-30 06:11:00,
2013-01-29 23:21:00,13.0,9.0,-100.00,SE,135,4.0,6.0,83,0.00,,,0.00,0.000000,,2013-01-30 06:21:00,
2013-01-29 23:32:00,13.0,9.0,-100.00,SE,135,4.0,6.0,83,0.00,,,0.00,0.000000,,2013-01-30 06:32:00,
2013-01-29 23:52:00,8.0,3.0,-100.00,SSE,167,2.0,6.0,80,0.00,,,0.00,0.000000,,2013-01-30 06:52:00,